Location: Cheyres
(46.8153°N, 6.7877°E)
Time: 01:04:51
(UTC+00:00)

Tiros 1 - Pass Details

Date: 29 May 2022
Orbit: 629 x 663 km, 48.4° (Epoch: 05 July)

Event Time Altitude Azimuth Distance (km) Brightness Sun altitude
Exits shadow 00:30:22 38° 245° (WSW) 974 7.7 -20.3°
Maximum altitude 00:32:08 82° 163° (SSE) 643 7.0 -20.2°
Drops below altitude 10° 00:36:48 10° 75° (ENE) 2,025 10.1 -20.0°
Sets 00:39:09 0° 75° (ENE) 2,940 11.0 -19.8°
